Location: Marse
(42.1502°N, 110.9866°W)
Time: 15:10:46
(UTC+00:00)

ITAMSAT 1 - Visible Passes

Search period start: 02 July 2022 00:00
Search period end: 12 July 2022 00:00
Orbit: 783 x 796 km, 98.9° (Epoch: 01 July)

Date Brightness Start Highest point End Pass type
(mag) Time Alt. Az. Time Alt. Az. Time Alt. Az.
02 Jul 10.3 03:53:17 10° WSW 03:56:00 14° W 03:58:44 10° WNW visible
05 Jul 10.6 04:05:30 10° WSW 04:06:56 11° W 04:08:24 10° WNW visible
06 Jul 10.1 03:33:07 10° SW 03:37:02 22° W 03:41:00 10° NW visible
09 Jul 10.2 03:44:34 10° SW 03:47:57 17° W 03:51:22 10° NW visible
